GW1554 Weather Reports


Display with metric or nautical units.
time (UTC)temp
F
wind
direction
speed
MPH
gust
MPH
rain 1hr
in
rain 24hr
in
rain mn
in
humidity
%
barometer
mb
20260901084525 78 76 1.0 5.0 0.00 0.00 0.00 54 1018.2
20260901083024 78 86 2.0 4.0 0.00 0.00 0.00 49 1018.2
20260901081520 77 125 1.0 6.0 0.00 0.00 0.00 46 1018.0
20260901080017 76 72 0.0 6.0 0.00 0.00 0.00 56 1017.8
20260901074515 76 40 1.0 5.0 0.00 0.00 0.00 66 1017.6
20260901073013 74 128 2.0 4.0 0.00 0.00 0.00 69 1017.6
20260901071514 74 78 2.0 5.0 0.00 0.00 0.00 65 1017.6
20260901070011 74 76 1.0 3.0 0.00 0.00 0.00 61 1017.7
20260901064508 74 359 0.0 0.0 0.00 0.00 0.00 70 1017.5
20260901063015 73 359 0.0 0.0 0.00 0.00 0.00 69 1017.5
20260901061503 71 359 0.0 3.0 0.00 0.00 0.00 65 1017.5
20260901060001 69 344 1.0 4.0 0.00 0.00 0.00 69 1017.4
20260901054603 68 359 4.0 8.0 0.00 0.00 0.00 65 1017.4
20260901053116 68 336 4.0 8.0 0.00 0.00 0.00 67 1017.1
20260901051611 68 338 3.0 6.0 0.00 0.00 0.00 67 1017.1
20260901050056 67 340 2.0 6.0 0.00 0.00 0.00 63 1017.0
20260901044554 67 58 2.0 5.0 0.00 0.00 0.00 60 1016.9
20260901043100 68 298 2.0 7.0 0.00 0.00 0.00 55 1016.8
20260901041605 67 312 2.0 5.0 0.00 0.00 0.00 54 1016.6
20260901040055 67 338 0.0 2.0 0.00 0.00 0.00 58 1016.6
20260901034550 68 359 0.0 6.0 0.00 0.00 0.00 56 1016.6
20260901033048 68 345 1.0 4.0 0.00 0.00 0.00 57 1016.6
20260901031555 67 304 1.0 4.0 0.00 0.00 0.00 62 1016.8
20260901030044 68 354 1.0 3.0 0.00 0.00 0.00 75 1016.9
20260901024542 68 333 1.0 5.0 0.00 0.00 0.00 77 1016.9
20260901023041 68 356 4.0 8.0 0.00 0.00 0.00 74 1016.9
20260901021539 68 39 3.0 8.0 0.00 0.00 0.00 79 1016.8
20260901020039 68 342 2.0 5.0 0.00 0.00 0.00 81 1016.9
20260901014544 68 329 1.0 4.0 0.00 0.00 0.00 80 1016.8
20260901013037 69 6 1.0 4.0 0.00 0.00 0.00 82 1016.7
20260901011535 69 334 0.0 3.0 0.00 0.00 0.00 81 1016.7
20260901010035 69 333 0.0 2.0 0.00 0.00 0.00 80 1016.6
20260901004533 69 336 1.0 2.0 0.00 0.00 0.00 73 1016.6
20260901003034 70 327 0.0 3.0 0.00 0.00 0.00 69 1016.5
20260901001541 69 328 1.0 3.0 0.00 0.00 0.00 63 1016.6
20260901000029 69 332 0.0 3.0 0.00 0.00 0.00 68 1016.6
20260831234530 69 343 2.0 4.0 0.00 0.00 0.00 66 1016.8
20260831233025 70 309 2.0 4.0 0.00 0.00 0.00 70 1016.8
20260831231525 70 347 0.0 3.0 0.00 0.00 0.00 73 1016.8
20260831230024 70 346 1.0 5.0 0.00 0.00 0.00 72 1016.8
20260831224520 70 333 2.0 7.0 0.00 0.00 0.00 77 1016.8
20260831223020 70 7 3.0 6.0 0.00 0.00 0.00 80 1016.7
20260831221517 71 314 1.0 4.0 0.00 0.00 0.00 81 1016.8
20260831220015 71 298 1.0 5.0 0.00 0.00 0.00 78 1016.5
20260831214521 70 351 1.0 3.0 0.00 0.00 0.00 81 1016.5
20260831213014 70 319 1.0 4.0 0.00 0.00 0.00 77 1016.3
20260831211518 70 346 1.0 5.0 0.00 0.00 0.00 80 1016.3
20260831210012 70 333 2.0 3.0 0.00 0.00 0.00 79 1016.4
20260831204517 71 16 0.0 2.0 0.00 0.00 0.00 84 1016.3
20260831203012 71 306 0.0 3.0 0.00 0.00 0.00 85 1016.1
20260831201510 70 17 1.0 3.0 0.00 0.00 0.00 82 1016.0
20260831200012 70 270 0.0 1.0 0.00 0.00 0.00 82 1015.8
20260831194508 71 269 0.0 0.0 0.00 0.00 0.00 84 1015.8
20260831193009 71 275 0.0 3.0 0.00 0.00 0.00 82 1015.7
20260831191508 72 87 0.0 1.0 0.00 0.00 0.00 82 1015.7
20260831190007 72 355 0.0 2.0 0.00 0.00 0.00 79 1015.4
20260831184505 73 288 1.0 2.0 0.00 0.00 0.00 83 1015.3
20260831183005 73 287 0.0 1.0 0.00 0.00 0.00 81 1015.3
20260831181506 74 279 1.0 3.0 0.00 0.00 0.00 80 1015.1
20260831180006 75 207 1.0 4.0 0.00 0.00 0.00 79 1015.1
20260831174501 76 234 0.0 3.0 0.00 0.00 0.00 77 1015.0
20260831173103 77 237 0.0 4.0 0.00 0.00 0.00 74 1015.1
20260831171700 78 205 2.0 6.0 0.00 0.00 0.00 72 1015.1
20260831170059 80 256 2.0 5.0 0.00 0.00 0.00 70 1015.1
20260831164558 80 239 1.0 5.0 0.00 0.00 0.00 70 1015.2
20260831163158 81 221 1.0 5.0 0.00 0.00 0.00 69 1015.4
20260831161605 82 181 1.0 5.0 0.00 0.00 0.00 68 1015.3
20260831160059 81 208 4.0 7.0 0.00 0.00 0.00 70 1015.5
20260831154557 81 173 1.0 3.0 0.00 0.00 0.00 71 1015.4
20260831153055 80 104 3.0 9.0 0.00 0.00 0.00 72 1015.5
20260831151559 81 229 1.0 5.0 0.00 0.00 0.00 72 1015.6
20260831150057 81 269 1.0 7.0 0.00 0.00 0.00 74 1015.7
20260831144552 81 218 1.0 8.0 0.00 0.00 0.00 74 1015.8
20260831143108 81 230 3.0 6.0 0.00 0.00 0.00 74 1015.7
20260831141556 82 142 3.0 9.0 0.00 0.00 0.00 72 1015.9
20260831140053 81 225 1.0 7.0 0.00 0.00 0.00 75 1015.9
20260831134550 81 114 4.0 8.0 0.00 0.00 0.00 75 1015.8
20260831133050 80 71 4.0 8.0 0.00 0.00 0.00 76 1016.0
20260831131549 81 318 3.0 9.0 0.00 0.00 0.00 75 1016.1
20260831130052 81 192 3.0 8.0 0.00 0.00 0.00 76 1016.2
20260831124548 81 118 4.0 9.0 0.00 0.00 0.00 75 1016.1
20260831123047 83 195 2.0 7.0 0.00 0.00 0.00 73 1016.1
20260831121550 82 115 2.0 6.0 0.00 0.00 0.00 74 1016.3
20260831120045 81 107 3.0 7.0 0.00 0.00 0.00 76 1016.3
20260831114551 81 283 3.0 7.0 0.00 0.00 0.00 76 1016.5
20260831113044 82 131 1.0 6.0 0.00 0.00 0.00 75 1016.4
20260831111549 81 115 2.0 9.0 0.00 0.00 0.00 75 1016.6
20260831110056 82 204 4.0 7.0 0.00 0.00 0.00 73 1016.6
20260831104544 81 221 2.0 8.0 0.00 0.00 0.00 73 1016.5
20260831103041 82 116 2.0 8.0 0.00 0.00 0.00 72 1016.6
20260831101545 82 223 3.0 7.0 0.00 0.00 0.00 71 1016.6
20260831100037 83 285 3.0 6.0 0.00 0.00 0.00 69 1016.7
20260831094540 82 96 2.0 8.0 0.00 0.00 0.00 69 1016.7
20260831093033 82 212 2.0 5.0 0.00 0.00 0.00 66 1016.6
20260831091541 82 259 2.0 6.0 0.00 0.00 0.00 67 1016.6
20260831090030 82 248 2.0 5.0 0.00 0.00 0.00 66 1016.5